Wind_Speed
81 83 84 85 84 83 81 79 76 74 73 72 70 69 70 70 71 72 74 74 73 72 73 76 81 85 85 89 92 92 93 90 93 94 94 93 92 90 89 84 79 76 73
78 79 73 70 71 72 70 67 64 62 60 58 56 56 59 63 66 68 69 66 67 66 62 67 71 76 81 85 88 93 97 94 94 94 95 96 94 95 94 93 90 86 83
66 64 63 63 61 57 52 47 39 36 36 38 40 41 42 44 49 53 48 53 57 59 54 52 62 68 71 77 81 85 88 90 94 92 92 96 96 98 98 97 97 95 91
56 56 52 45 39 30 27 26 27 28 31 34 36 39 42 45 49 47 45 45 42 42 40 42 49 55 61 67 73 76 81 85 90 94 105 96 96 101 102 101 99 100 98
43 31 29 25 20 19 22 26 29 33 35 34 36 38 41 44 49 50 42 36 35 32 33 33 35 41 49 55 62 68 73 82 83 92 96 102 90 104 107 101 100 100 100
18 17 15 17 21 24 24 23 25 29 31 33 34 36 40 44 46 52 41 31 27 27 27 26 28 32 39 44 50 59 66 73 79 87 99 101 108 104 110 101 95 97 103
13 14 15 16 16 18 20 20 23 26 28 32 35 38 40 41 41 48 46 32 24 20 19 21 22 25 30 36 42 49 57 64 72 81 89 98 105 111 111 103 94 101 102
11 12 13 14 15 16 20 23 27 29 32 36 38 38 39 38 39 38 44 40 26 20 14 12 16 20 23 27 32 40 48 56 62 70 78 86 94 98 107 104 100 101 102
11 13 17 22 23 26 28 28 31 36 36 36 39 41 43 43 43 39 34 34 34 26 19 13 9 13 19 24 28 33 40 47 53 59 63 70 74 83 90 95 99 99 101
21 20 25 26 27 30 31 32 33 35 37 37 40 43 46 48 49 48 43 38 33 25 22 19 14 10 10 13 17 23 28 35 40 45 51 56 64 70 77 82 87 90 90
30 32 33 34 32 30 30 34 37 37 41 42 41 44 45 46 48 50 50 50 45 41 34 26 20 18 15 12 12 14 17 21 23 29 37 44 51 55 60 64 68 69 74
30 31 30 30 29 28 28 31 35 37 36 37 39 42 44 45 46 48 48 49 48 46 44 44 38 31 25 20 15 13 14 14 15 17 21 27 33 41 47 51 56 59 62
29 29 29 30 30 30 32 34 35 36 39 40 42 41 41 41 44 45 45 46 47 47 44 42 40 38 36 34 31 27 22 17 15 15 16 16 18 21 26 31 36 41 46
27 27 29 30 31 32 34 35 36 38 39 40 42 41 40 42 42 42 42 42 45 41 41 41 42 39 35 33 31 29 28 29 28 26 24 24 25 27 29 33 37 42 47
31 32 32 34 35 36 37 39 40 40 41 43 45 48 48 49 48 45 46 47 45 45 42 40 38 36 34 34 34 33 29 26 24 22 24 25 28 32 35 38 41 44 47
32 34 34 36 39 38 38 39 40 42 45 46 47 50 54 53 51 49 43 47 49 50 48 45 44 43 41 38 38 37 37 33 30 28 26 27 29 31 37 41 45 48 53
34 35 37 39 41 44 45 44 42 46 46 46 46 48 49 51 56 59 58 50 48 49 51 50 47 48 47 46 44 43 43 43 42 40 38 36 36 38 40 43 47 50 53
35 38 39 41 42 41 46 48 49 51 52 52 44 49 51 52 54 56 56 55 52 52 53 55 56 53 50 51 51 50 47 46 45 45 44 44 45 45 45 47 50 53 56
32 33 35 36 42 46 45 46 46 52 52 51 41 49 57 55 54 56 56 62 61 59 56 63 67 63 57 59 58 54 54 54 54 51 51 51 51 52 51 52 54 56 59
42 42 42 39 38 40 38 49 53 53 54 56 47 52 60 56 57 58 58 60 53 58 59 66 67 66 59 62 66 65 63 60 59 57 59 58 57 57 58 59 59 61 63
56 55 53 50 53 51 49 54 49 53 49 49 54 56 61 59 63 59 63 61 58 60 68 71 71 68 65 70 70 66 65 64 63 64 63 62 62 62 62 62 64 64 63
64 63 62 63 64 63 61 59 62 65 66 65 60 65 66 63 68 67 65 65 65 67 69 70 73 71 71 71 73 76 68 66 67 67 66 65 65 66 67 66 68 68 66
70 73 73 72 72 71 71 70 71 70 69 70 69 70 70 70 71 71 72 72 74 74 71 72 71 76 75 76 79 78 73 69 69 68 67 67 67 68 68 69 69 69 69
81 84 84 83 83 85 84 82 80 79 77 76 75 76 76 73 73 75 77 79 78 76 78 80 79 78 81 80 81 82 78 71 72 70 69 68 68 70 70 70 70 70 70
85 87 88 88 89 89 90 91 89 88 86 86 83 81 82 84 83 82 80 82 85 85 83 83 88 82 87 86 86 86 77 75 74 70 70 69 69 70 71 72 71 71 73
95 97 100 102 103 102 101 99 97 95 95 94 94 93 91 89 88 88 89 88 88 90 92 90 87 82 83 84 84 82 76 75 75 72 71 69 70 70 71 73 72 73 75
Wind_Direction
282 283 284 285 286 290 291 292 292 292 291 290 290 288 286 286 284 284 283 280 278 273 269 264 260 258 254 251 251 251 250 251 250 250 251 253 256 257 259 260 258 259 259
284 289 290 290 290 291 292 293 294 294 293 292 292 291 291 292 292 291 288 287 280 275 267 261 257 254 253 250 247 246 247 248 249 250 250 252 252 255 257 258 258 259 259
286 289 292 293 294 295 297 297 298 298 300 302 305 309 310 310 307 304 303 287 280 276 272 261 256 253 251 250 248 246 245 245 248 249 254 249 252 253 253 257 259 260 259
291 294 297 299 299 301 308 314 319 324 326 328 324 322 319 319 320 321 312 300 292 282 277 263 256 253 252 249 247 246 244 243 243 244 245 248 249 250 252 251 253 257 260
298 302 298 304 322 330 329 331 327 324 325 328 327 327 324 327 325 331 326 315 304 294 286 269 263 255 251 249 247 246 244 242 240 242 245 247 250 249 248 250 252 254 256
307 316 329 328 332 329 331 333 333 339 342 341 338 335 335 337 332 329 340 331 316 304 292 281 271 257 249 249 249 247 245 244 241 240 241 244 245 251 253 252 251 251 253
324 334 342 342 338 334 339 350 357 355 353 353 351 350 347 342 340 335 342 344 336 315 302 284 269 261 255 254 251 249 247 246 244 241 239 241 245 248 252 253 252 253 255
355 354 357 5 9 14 13 9 5 2 2 1 358 358 356 358 357 348 346 351 351 340 319 311 284 260 252 254 251 248 248 249 249 248 247 246 246 248 251 255 257 258 259
37 33 32 29 30 27 29 28 26 27 27 22 16 10 6 6 6 7 1 360 359 358 353 339 318 291 275 264 254 251 251 252 252 250 249 250 252 251 253 255 257 258 259
46 44 51 46 46 47 47 43 42 38 33 31 29 24 20 16 13 9 10 12 11 12 20 14 4 347 316 289 277 270 266 264 261 257 253 252 249 249 252 254 256 259 261
60 58 58 52 50 49 45 35 34 30 29 26 24 26 23 26 26 22 17 16 15 15 15 14 20 26 21 356 334 309 294 285 275 264 258 257 253 249 252 255 258 260 261
56 46 44 45 43 36 31 30 29 26 23 23 23 22 22 21 22 24 26 25 22 19 18 15 15 13 10 11 14 7 347 324 298 275 267 263 260 256 255 257 260 262 262
47 43 38 35 31 29 26 23 21 20 17 17 16 17 19 19 19 20 20 21 22 25 22 21 18 14 10 7 3 357 350 346 345 332 314 299 285 277 273 272 272 270 269
25 24 19 15 14 12 11 10 10 10 9 7 7 10 11 11 13 12 12 12 13 13 14 16 16 14 12 10 5 358 352 349 343 338 330 324 314 299 285 277 273 271 268
10 6 4 2 360 359 359 358 359 359 359 359 0 360 1 2 4 3 5 6 4 4 2 2 2 5 5 3 359 358 352 343 337 328 317 309 303 296 292 288 285 283 283
345 351 346 345 348 350 349 350 348 348 348 349 348 351 351 350 351 355 355 355 356 356 355 353 351 351 351 348 350 349 351 341 333 325 313 302 293 291 290 288 285 283 282
329 328 334 331 327 332 337 337 335 338 340 340 337 341 343 343 343 344 346 345 349 347 346 345 345 346 345 344 342 340 339 337 335 329 324 317 309 301 295 292 289 287 284
321 322 322 325 328 327 327 327 327 330 330 334 327 331 332 336 337 338 335 338 340 342 342 341 339 336 337 337 335 333 331 331 330 328 323 318 315 311 307 300 295 292 291
312 315 313 313 316 319 315 320 324 321 322 327 318 323 326 326 327 329 329 332 330 332 333 335 332 332 332 331 331 330 329 327 324 324 321 315 312 310 306 305 302 298 295
316 312 306 300 303 309 305 307 309 316 318 321 313 310 317 320 325 322 321 323 321 322 323 326 328 327 332 333 329 326 325 324 324 322 320 317 312 309 307 307 305 303 299
312 310 309 309 309 306 303 304 304 300 308 302 299 304 312 309 310 318 316 319 315 314 317 319 321 323 325 324 324 325 322 321 320 320 319 316 314 311 307 306 306 304 300
310 309 309 308 306 305 306 306 301 302 303 305 303 301 301 303 307 307 309 311 312 312 314 314 316 317 317 318 320 320 320 320 318 316 315 314 313 312 308 305 305 305 302
310 310 309 307 305 302 302 303 299 301 299 298 297 296 298 299 302 303 303 303 305 306 310 309 311 312 312 313 314 316 314 317 317 314 313 312 311 310 308 306 306 306 304
306 308 308 306 304 303 301 300 298 299 297 297 295 294 294 295 297 300 300 302 299 298 300 304 306 304 307 309 310 310 311 313 314 313 311 311 309 308 307 306 307 307 307
297 301 302 302 301 300 298 296 295 295 295 297 296 294 293 295 297 298 298 300 301 302 300 302 304 300 300 303 306 306 306 308 309 310 310 309 308 308 307 308 307 308 309
298 298 298 299 300 300 298 294 293 292 292 292 292 292 293 294 293 295 296 296 296 298 297 299 301 299 298 300 302 301 302 304 306 307 308 307 307 306 307 308 308 308 310
Height
10691 10686 10680 10676 10673 10670 10662 10654 10647 10641 10633 10628 10621 10615 10609 10604 10597 10592 10587 10583 10581 10582 10582 10586 10588 10590 10598 10605 10614 10624 10631 10641 10649 10654 10658 10666 10670 10677 10680 10686 10692 10697 10702
10675 10672 10668 10664 10659 10653 10646 10639 10632 10625 10618 10613 10608 10601 10595 10588 10581 10574 10566 10563 10556 10551 10554 10555 10559 10561 10567 10574 10584 10594 10605 10616 10625 10633 10639 10645 10651 10655 10659 10663 10670 10675 10681
10662 10659 10655 10651 10644 10638 10632 10626 10620 10614 10609 10603 10598 10592 10584 10577 10567 10556 10548 10537 10533 10529 10530 10533 10534 10537 10545 10550 10558 10569 10582 10596 10605 10615 10622 10625 10632 10634 10640 10645 10648 10652 10658
10650 10647 10643 10638 10632 10627 10622 10617 10612 10606 10601 10596 10590 10583 10575 10566 10555 10543 10530 10521 10514 10512 10511 10513 10514 10520 10526 10531 10537 10548 10560 10572 10583 10590 10590 10601 10607 10608 10615 10623 10630 10632 10637
10640 10636 10633 10629 10625 10620 10616 10612 10607 10602 10597 10591 10583 10575 10566 10557 10543 10530 10519 10509 10501 10498 10498 10498 10501 10506 10509 10515 10521 10530 10540 10546 10560 10567 10574 10576 10587 10582 10587 10602 10609 10612 10616
10631 10630 10626 10623 10619 10616 10612 10608 10603 10599 10593 10585 10577 10568 10559 10550 10538 10522 10513 10502 10494 10490 10489 10490 10492 10494 10498 10503 10509 10516 10522 10529 10537 10544 10551 10559 10562 10565 10569 10579 10587 10595 10592
10627 10624 10620 10617 10615 10611 10608 10604 10600 10595 10589 10581 10573 10564 10557 10547 10534 10518 10507 10497 10490 10486 10484 10483 10484 10487 10490 10494 10498 10503 10508 10512 10517 10524 10530 10537 10541 10542 10548 10556 10568 10571 10573
10623 10620 10618 10615 10613 10609 10606 10602 10598 10592 10585 10577 10569 10560 10551 10543 10533 10521 10505 10494 10488 10483 10480 10479 10480 10480 10482 10485 10489 10492 10495 10498 10502 10508 10515 10520 10526 10534 10532 10538 10547 10551 10551
10621 10619 10618 10614 10611 10608 10604 10601 10596 10591 10583 10576 10567 10556 10545 10536 10527 10519 10510 10499 10489 10482 10478 10476 10476 10477 10478 10479 10480 10482 10484 10485 10489 10493 10498 10505 10513 10520 10522 10526 10529 10533 10535
10621 10619 10616 10613 10611 10607 10604 10601 10595 10589 10583 10576 10568 10558 10547 10536 10526 10517 10510 10503 10496 10489 10483 10478 10475 10474 10475 10475 10475 10476 10478 10480 10481 10484 10487 10491 10494 10500 10504 10509 10513 10517 10521
10623 10620 10617 10614 10611 10608 10605 10600 10595 10589 10583 10576 10569 10560 10550 10540 10530 10521 10512 10504 10497 10491 10487 10483 10479 10477 10475 10474 10473 10471 10471 10471 10472 10474 10477 10479 10482 10485 10489 10494 10497 10501 10502
10626 10622 10619 10617 10613 10610 10606 10599 10593 10587 10582 10577 10570 10563 10555 10546 10537 10528 10519 10511 10504 10497 10491 10485 10481 10478 10476 10473 10471 10471 10469 10467 10466 10466 10467 10468 10470 10472 10475 10477 10480 10482 10482
10627 10624 10621 10617 10614 10610 10604 10599 10593 10588 10582 10576 10570 10564 10557 10549 10542 10534 10527 10519 10512 10505 10500 10495 10489 10483 10479 10474 10471 10468 10465 10464 10463 10461 10460 10459 10461 10463 10464 10465 10466 10466 10466
10629 10626 10622 10618 10614 10609 10603 10598 10592 10587 10581 10576 10570 10564 10556 10549 10542 10536 10529 10523 10517 10511 10505 10499 10494 10489 10485 10480 10476 10472 10468 10463 10459 10457 10456 10456 10457 10458 10459 10459 10457 10456 10456
10627 10624 10620 10616 10611 10606 10600 10595 10589 10585 10579 10572 10566 10560 10553 10547 10542 10535 10529 10523 10518 10512 10507 10502 10497 10493 10488 10483 10478 10473 10469 10465 10463 10461 10459 10457 10456 10454 10451 10449 10447 10443 10439
10624 10621 10617 10613 10608 10602 10597 10591 10586 10580 10574 10568 10561 10556 10550 10545 10541 10535 10529 10523 10517 10511 10505 10499 10494 10489 10485 10481 10476 10472 10469 10465 10462 10458 10454 10451 10447 10444 10440 10435 10430 10426 10423
10619 10616 10612 10607 10603 10598 10592 10587 10581 10576 10569 10563 10556 10551 10546 10541 10534 10529 10525 10520 10514 10509 10503 10498 10492 10486 10481 10477 10473 10467 10462 10457 10452 10448 10444 10440 10436 10432 10426 10421 10417 10412 10409
10611 10607 10604 10600 10595 10592 10586 10580 10575 10569 10562 10557 10550 10545 10540 10535 10530 10524 10518 10514 10509 10504 10499 10494 10488 10482 10475 10469 10464 10459 10455 10450 10445 10440 10435 10430 10425 10420 10414 10407 10400 10394 10388
10603 10598 10594 10590 10586 10583 10579 10572 10566 10560 10554 10550 10543 10538 10533 10528 10522 10516 10511 10505 10498 10494 10490 10485 10479 10473 10466 10460 10454 10449 10444 10438 10433 10428 10422 10417 10410 10404 10400 10392 10384 10376 10369
10596 10593 10588 10583 10577 10572 10568 10563 10558 10552 10547 10540 10534 10529 10524 10519 10513 10507 10502 10496 10490 10484 10479 10475 10470 10463 10456 10448 10443 10436 10431 10426 10421 10416 10409 10401 10395 10388 10382 10375 10368 10359 10350
10581 10577 10575 10570 10565 10560 10557 10551 10547 10541 10538 10532 10525 10518 10513 10508 10502 10497 10491 10486 10480 10474 10468 10463 10457 10450 10444 10438 10431 10424 10417 10411 10405 10399 10393 10386 10378 10370 10363 10356 10349 10342 10333
10565 10563 10562 10556 10549 10544 10542 10537 10530 10527 10523 10518 10512 10506 10500 10496 10488 10484 10478 10473 10467 10462 10455 10449 10443 10437 10431 10425 10418 10411 10403 10395 10388 10382 10376 10368 10360 10353 10345 10336 10329 10320 10312
10548 10544 10543 10540 10533 10527 10525 10523 10513 10512 10507 10501 10496 10490 10485 10481 10475 10469 10464 10458 10452 10446 10441 10434 10429 10422 10416 10409 10402 10395 10388 10380 10371 10364 10357 10349 10341 10334 10326 10318 10310 10301 10291
10532 10527 10522 10517 10513 10506 10504 10501 10497 10491 10488 10484 10477 10470 10466 10462 10457 10453 10447 10441 10435 10429 10424 10418 10413 10406 10398 10392 10385 10377 10371 10363 10354 10345 10338 10330 10321 10314 10306 10298 10290 10281 10271
10513 10508 10503 10498 10491 10485 10479 10473 10472 10469 10465 10461 10455 10449 10445 10440 10436 10431 10426 10420 10414 10410 10403 10398 10392 10387 10380 10374 10367 10360 10353 10346 10337 10329 10320 10312 10303 10293 10285 10277 10269 10260 10250
10489 10484 10478 10473 10467 10462 10455 10447 10443 10441 10437 10432 10427 10423 10420 10416 10411 10407 10403 10398 10393 10389 10381 10376 10371 10366 10360 10353 10347 10339 10334 10327 10319 10311 10302 10293 10284 10275 10266 10258 10250 10241 10231